Regional Weather Roundup
Issued by NWS Sterling, VA

Home | Current Version | Previous Version | Graphics & Text | Print | Product List | Glossary On
Versions: 1 2 3 4 5 6 7 8 9 10 11 12 13 14 15 16 17 18 19 20 21 22 23 24 25 26 27
000
ASUS41 KLWX 030610
RWRLWX

REGIONAL WEATHER ROUNDUP
NATIONAL WEATHER SERVICE BALTIMORE MD/WASHINGTON DC
200 AM EDT TUE MAY 03 2016

Note: "FAIR" indicates few or no clouds below 12,000 feet
with no significant weather and/or obstructions to visibility.
 TC=TEMPERATURE CELSIUS

 * =Non NWS site. Station does not report precipitation (e.g. rain,
    snow, etc.), thunder, or fog.

DCZ001-MDZ009-015-VAZ040>042-051-053>054-030700-
WASHINGTON METRO

CITY           SKY/WX    TMP DP  RH WIND       PRES   REMARKS
WASHINGTON NAT CLOUDY    62  60  93 CALM      29.83
DULLES         CLOUDY    63  61  93 E5        29.83S
ANDREWS AFB    FOG       63  63 100 CALM      29.82F VSB 1/2
FT BELVOIR     CLOUDY    62  60  95 SE1       29.82F
QUANTICO       MOCLDY    65  62  90 NW3       29.83S
COLLEGE PARK*  CLOUDY    61  61 100 CALM      29.82F
LEESBURG*      CLOUDY    63  63 100 E3        29.84S
MANASSAS*      CLOUDY    63  63 100 S3        29.82F
GAITHERSBURG*  CLOUDY    61  57  88 E3        29.87S VSB 3/4

$$

MDZ006>007-011-014-030700-
BALTIMORE METRO

CITY           SKY/WX    TMP DP  RH WIND       PRES   REMARKS
BWI AIRPORT    CLOUDY    61  60  97 NE7       29.82F FOG
MD SCIENCE CTR   N/A     61  58  90 MISG      29.83F
MARTIN STATE   CLOUDY    61  61 100 N3        29.84F
ANNAPOLIS      CLOUDY    62  61  96 CALM      29.82F FOG
FORT MEADE*    CLOUDY    61  59  94 NE5       29.85F

$$

MDZ012-015-019>023-030700-
MARYLAND EASTERN SHORE

CITY           SKY/WX    TMP DP  RH WIND       PRES   REMARKS
OCEAN CITY     HVY RAIN  64  63  96 SW6       29.84F FOG
SALISBURY      RAIN      64  63  96 SW7       29.84S FOG
CAMBRIDGE*       N/A     64  63  94 SW6       29.83
EASTON*        CLOUDY   N/A N/A N/A CALM      29.85F

$$

MDZ017>025-030700-
SOUTHERN MARYLAND

CITY           SKY/WX    TMP DP  RH WIND       PRES   REMARKS
PATUXENT RIVER CLOUDY    66  63  90 S5        29.84R
ST INIGOES     RAIN      65  65 100 SE9       29.84S FOG
LEONARDTOWN*   CLOUDY    64  63  94 SW5       29.86S

$$

MDZ003>005-030700-
NORTH CENTRAL MARYLAND

CITY           SKY/WX    TMP DP  RH WIND       PRES   REMARKS
FREDERICK*     CLOUDY    63  63 100 CALM      29.85S
HAGERSTOWN APT LGT RAIN  61  59  93 NW5       29.82F FOG
WESTMINSTER*   CLOUDY    61  57  88 SE5       29.83F FOG

$$

MDZ501>502-030700-
WESTERN MARYLAND

CITY           SKY/WX    TMP DP  RH WIND       PRES   REMARKS
OAKLAND*       CLOUDY    52  52 100 W3        29.89F FOG
CUMBERLAND*    CLOUDY    61  59  94 CALM      29.90S

$$

VAZ025>031-030700-
SHENANDOAH VALLEY

CITY           SKY/WX    TMP DP  RH WIND       PRES   REMARKS
WINCHESTER*    LGT RAIN  63  59  88 W5        29.84R
FRONT ROYAL*   CLOUDY    61  61 100 SW5       29.84R
LURAY*         LGT RAIN  61  61 100 CALM      29.85S
NEW MARKET*    CLOUDY    60  60 100 CALM      29.85S
STAUNTON*      DRIZZLE  N/A N/A N/A CALM      29.88S
WAYNESBORO*    CLOUDY    59  58  96 CALM      29.87S

$$

WVZ021-048>050-054>055-030700-
EASTERN WEST VIRGINIA PANHANDLE

CITY           SKY/WX    TMP DP  RH WIND       PRES   REMARKS
MARTINSBURG    LGT RAIN  63  61  93 CALM      29.83S FOG
PETERSBURG*    CLOUDY    62  57  82 CALM      29.86F

$$

VAZ036>039-050-030700-
CENTRAL FOOTHILLS

CITY           SKY/WX    TMP DP  RH WIND       PRES   REMARKS
CHARLOTTESVILL LGT RAIN  63  60  90 S8        29.83F
CULPEPER*      CLOUDY    63  63  99 S3        29.84F
ORANGE*        CLOUDY    63  63 100 CALM      29.85F
GORDONSVILLE*  CLOUDY    62  62  99 S6        29.83F
WARRENTON*     CLOUDY    63  59  85 S5        29.82F

$$

VAZ055>057-030700-
NORTH AND CENTRAL PIEDMONT

CITY           SKY/WX    TMP DP  RH WIND       PRES   REMARKS
FREDERICKSBRG* MOCLDY    64  64 100 S6        29.82F
STAFFORD*      FAIR      63  61  94 CALM      29.87F

$$

NCZ024-NYZ072-PAZ021-071-VAZ022-071-030700-
OTHER REGIONAL OBSERVATIONS

CITY           SKY/WX    TMP DP  RH WIND       PRES   REMARKS
NEW YORK CITY  LGT RAIN  53  52  96 CALM      29.93S FOG
PHILADELPHIA   CLOUDY    59  55  87 E9        29.85F
PITTSBURGH     CLOUDY    50  44  80 NW7       29.90F
ROANOKE        MOCLDY    61  59  93 W6        29.89F
RICHMOND       HVY RAIN  64  63  96 S10       29.83F FOG
RALEIGH        LGT RAIN  67  65  93 W8        29.90R

$$

ANZ530>537-030700-
MARINE OBSERVATIONS

STATION/POSITION TIME  TEMP    WIND        PRES
                       AIR SEA DIR/SP/G
                 (UTC) (F)     (DEG/KT/KT) (MB)
THOMAS PT LIGHT  0600   61 58  320/  5/  5 1011.1F
BALT KEY BRIDGE  0500   61      30/ 10/ 12 1010.0F
COVE POINT       0500   65     220/  4/  6 1010.6F
LEWISETTA        0500   66 62  230/  5/  6 1010.7S
SOLOMONS ISLAND  0500   63 61  220/  8/  8   N/A
PINEY POINT      0500          200/  8/  9   N/A

$$





USA.gov is the U.S. government's official web portal to all federal, state and local government web resources and services.